,,,PA_Meas_PMT16A,,PR_Meas_QMR101_102,,RH_Meas_QMH101,,SR_Meas_QMS101,,TA_Meas_QMH101,,GenWind,,GenWind,
date,time,status,PA,status,PR,status,RH,status,SR,status,TA,status,DirAvg,status,SpdAvg,
2010-02-05, 00:00:04,VALID,1002.65,VALID,0,VALID,91.1434,VALID,0,VALID,22.6087,VALID,219,VALID,0,
2010-02-05, 00:01:04,VALID,1002.67,VALID,0,VALID,91.0748,VALID,0,VALID,22.6087,VALID,219,VALID,0,
2010-02-05, 00:02:04,VALID,1002.66,VALID,0,VALID,91.1816,VALID,0,VALID,22.6104,VALID,219,VALID,0,
2010-02-05, 00:03:04,VALID,1002.66,VALID,0,VALID,91.3037,VALID,0,VALID,22.6087,VALID,218,VALID,0,
2010-02-05, 00:04:04,VALID,1002.66,VALID,0,VALID,91.3647,VALID,0,VALID,22.6299,VALID,215,VALID,0,
2010-02-05, 00:05:04,VALID,1002.65,VALID,0,VALID,91.235,VALID,0,VALID,22.6282,VALID,198,VALID,0,
2010-02-05, 00:06:04,VALID,1002.61,VALID,0,VALID,90.968,VALID,0,VALID,22.6282,VALID,99,VALID,0.837109,
2010-02-05, 00:07:04,VALID,1002.59,VALID,0,VALID,90.7849,VALID,0,VALID,22.6282,VALID,96,VALID,0.0679687,
2010-02-05, 00:08:04,VALID,1002.56,VALID,0,VALID,90.6323,VALID,0,VALID,22.6477,VALID,96,VALID,0,
2010-02-05, 00:09:04,VALID,1002.55,VALID,0,VALID,90.5941,VALID,0,VALID,22.6477,VALID,96,VALID,0.0613281,
2010-02-05, 00:10:04,VALID,1002.55,VALID,0,VALID,90.6323,VALID,0,VALID,22.6884,VALID,96,VALID,0.574219,
2010-02-05, 00:11:04,VALID,1002.51,VALID,0,VALID,90.35,VALID,0,VALID,22.7079,VALID,126,VALID,0.895703,
2010-02-05, 00:12:04,VALID,1002.5,VALID,0,VALID,90.2584,VALID,0,VALID,22.7452,VALID,136,VALID,0.871094,
2010-02-05, 00:13:04,VALID,1002.51,VALID,0,VALID,90.2737,VALID,0,VALID,22.786,VALID,136,VALID,0.654688,
2010-02-05, 00:14:04,VALID,1002.48,VALID,0,VALID,90.3881,VALID,0.112286,VALID,22.8427,VALID,136,VALID,0.853906,
2010-02-05, 00:15:04,VALID,1002.46,VALID,0,VALID,90.3042,VALID,0,VALID,22.841,VALID,136,VALID,0.5125,
2010-02-05, 00:16:04,VALID,1002.43,VALID,0,VALID,90.2508,VALID,0,VALID,22.9013,VALID,136,VALID,0.777734,
2010-02-05, 00:17:04,VALID,1002.41,VALID,0,VALID,90.2889,VALID,0,VALID,22.9013,VALID,136,VALID,0.701563,
2010-02-05, 00:18:04,VALID,1002.41,VALID,0,VALID,90.3271,VALID,0,VALID,22.8605,VALID,136,VALID,0.107422,
2010-02-05, 00:19:04,VALID,1002.37,VALID,0,VALID,90.0829,VALID,0,VALID,22.8623,VALID,136,VALID,0,
2010-02-05, 00:20:04,VALID,1002.37,VALID,0,VALID,90.1897,VALID,0.112286,VALID,22.8427,VALID,136,VALID,0,
2010-02-05, 00:21:04,VALID,1002.35,VALID,0,VALID,90.1058,VALID,0,VALID,22.7842,VALID,136,VALID,0,
2010-02-05, 00:22:04,VALID,1002.31,VALID,0,VALID,90.0066,VALID,0.112286,VALID,22.724,VALID,136,VALID,0,
2010-02-05, 00:23:04,VALID,1002.32,VALID,0,VALID,90.144,VALID,0,VALID,22.6867,VALID,136,VALID,0,
2010-02-05, 00:24:04,VALID,1002.3,VALID,0,VALID,90.3957,VALID,0,VALID,22.646,VALID,136,VALID,0,
2010-02-05, 00:25:04,VALID,1002.25,VALID,0,VALID,90.3423,VALID,0,VALID,22.6282,VALID,136,VALID,0,
2010-02-05, 00:26:04,VALID,1002.26,VALID,0,VALID,90.3194,VALID,0,VALID,22.5696,VALID,136,VALID,0,
2010-02-05, 00:27:04,VALID,1002.26,VALID,0,VALID,90.5331,VALID,0,VALID,22.5094,VALID,136,VALID,0,
2010-02-05, 00:28:04,VALID,1002.23,VALID,0,VALID,90.8383,VALID,0,VALID,22.4899,VALID,136,VALID,0,
2010-02-05, 00:29:04,VALID,1002.2,VALID,0,VALID,90.9985,VALID,0,VALID,22.4721,VALID,136,VALID,0,
2010-02-05, 00:30:04,VALID,1002.21,VALID,0,VALID,91.3113,VALID,0,VALID,22.4916,VALID,189,VALID,0,
2010-02-05, 00:31:04,VALID,1002.23,VALID,0,VALID,91.4257,VALID,0,VALID,22.5306,VALID,189,VALID,0,
2010-02-05, 00:32:04,VALID,1002.24,VALID,0,VALID,91.5326,VALID,0,VALID,22.5501,VALID,189,VALID,0,
2010-02-05, 00:33:04,VALID,1002.27,VALID,0,VALID,91.4486,VALID,0,VALID,22.5501,VALID,189,VALID,0,
2010-02-05, 00:34:04,VALID,1002.25,VALID,0,VALID,91.4868,VALID,0,VALID,22.5696,VALID,189,VALID,0,
2010-02-05, 00:35:04,VALID,1002.21,VALID,0,VALID,91.5097,VALID,0,VALID,22.5696,VALID,234,VALID,0,
2010-02-05, 00:36:04,VALID,1002.23,VALID,0,VALID,91.4791,VALID,0,VALID,22.5696,VALID,262,VALID,0,
2010-02-05, 00:37:04,VALID,1002.26,VALID,0,VALID,91.4486,VALID,0,VALID,22.5501,VALID,262,VALID,0,
2010-02-05, 00:38:04,VALID,1002.21,VALID,0,VALID,91.4334,VALID,0,VALID,22.5111,VALID,262,VALID,0,
2010-02-05, 00:39:04,VALID,1002.23,VALID,0,VALID,91.3418,VALID,0,VALID,22.4916,VALID,262,VALID,0,
2010-02-05, 00:40:04,VALID,1002.22,VALID,0,VALID,91.3494,VALID,0,VALID,22.4721,VALID,262,VALID,0,
2010-02-05, 00:41:04,VALID,1002.23,VALID,0,VALID,91.6088,VALID,0,VALID,22.4916,VALID,266,VALID,0.637109,
2010-02-05, 00:42:04,VALID,1002.16,VALID,0,VALID,91.6623,VALID,0,VALID,22.5111,VALID,292,VALID,0.714844,
2010-02-05, 00:43:04,VALID,1002.19,VALID,0,VALID,91.6165,VALID,0,VALID,22.4916,VALID,293,VALID,0.499609,
2010-02-05, 00:44:04,VALID,1002.13,VALID,0,VALID,91.5783,VALID,0,VALID,22.4738,VALID,293,VALID,0.4,
2010-02-05, 00:45:04,VALID,1002.11,VALID,0,VALID,91.6775,VALID,0,VALID,22.4543,VALID,293,VALID,0,
2010-02-05, 00:46:04,VALID,1002.09,VALID,0,VALID,91.7614,VALID,0,VALID,22.4738,VALID,280,VALID,0.440625,
2010-02-05, 00:47:04,VALID,1002.09,VALID,0,VALID,91.792,VALID,0,VALID,22.4543,VALID,280,VALID,0,
2010-02-05, 00:48:04,VALID,1002.08,VALID,0,VALID,91.7691,VALID,0,VALID,22.4543,VALID,280,VALID,0,
2010-02-05, 00:49:04,VALID,1002.06,VALID,0,VALID,91.708,VALID,0,VALID,22.4348,VALID,280,VALID,0,
2010-02-05, 00:50:04,VALID,1002.04,VALID,0,VALID,91.7157,VALID,0,VALID,22.4136,VALID,280,VALID,0,
2010-02-05, 00:51:04,VALID,1002.04,VALID,0,VALID,91.7233,VALID,0,VALID,22.4153,VALID,280,VALID,0,
2010-02-05, 00:52:04,VALID,1002.07,VALID,0,VALID,91.7462,VALID,0,VALID,22.3958,VALID,280,VALID,0,
2010-02-05, 00:53:04,VALID,1002.09,VALID,0,VALID,91.5402,VALID,0,VALID,22.3568,VALID,280,VALID,0,
2010-02-05, 00:54:04,VALID,1002.05,VALID,0,VALID,91.7538,VALID,0,VALID,22.3178,VALID,280,VALID,0,
2010-02-05, 00:55:04,VALID,1002.09,VALID,0,VALID,91.7843,VALID,0,VALID,22.2966,VALID,280,VALID,0,
2010-02-05, 00:56:04,VALID,1002.06,VALID,0,VALID,91.3647,VALID,0,VALID,22.2397,VALID,280,VALID,0,
2010-02-05, 00:57:04,VALID,1002.07,VALID,0,VALID,91.8148,VALID,0,VALID,22.2007,VALID,246,VALID,0,
2010-02-05, 00:58:04,VALID,1002.05,VALID,0,VALID,91.8759,VALID,0,VALID,22.2007,VALID,195,VALID,0,
2010-02-05, 00:59:04,VALID,1002.05,VALID,0,VALID,91.9903,VALID,0,VALID,22.1795,VALID,195,VALID,0,
2010-02-05, 01:00:04,VALID,1002.08,VALID,0,VALID,92.0132,VALID,0,VALID,22.1795,VALID,195,VALID,0,
2010-02-05, 01:01:04,VALID,1002.03,VALID,0,VALID,92.2574,VALID,0,VALID,22.199,VALID,195,VALID,0,
2010-02-05, 01:02:04,VALID,1002.05,VALID,0,VALID,92.2192,VALID,0,VALID,22.2381,VALID,195,VALID,0,
2010-02-05, 01:03:04,VALID,1002.07,VALID,0,VALID,91.9903,VALID,0,VALID,22.199,VALID,195,VALID,0,
2010-02-05, 01:04:04,VALID,1002.08,VALID,0,VALID,91.6165,VALID,0,VALID,22.16,VALID,190,VALID,0,
2010-02-05, 01:05:04,VALID,1002.06,VALID,0,VALID,91.6775,VALID,0,VALID,22.1405,VALID,136,VALID,0,
2010-02-05, 01:06:04,VALID,1002.03,VALID,0,VALID,91.5783,VALID,0,VALID,22.1405,VALID,140,VALID,0,
2010-02-05, 01:07:04,VALID,1002.02,VALID,0,VALID,91.38,VALID,0,VALID,22.1015,VALID,140,VALID,0,
2010-02-05, 01:08:04,VALID,1001.98,VALID,0,VALID,91.3342,VALID,0,VALID,22.1015,VALID,223,VALID,0,
2010-02-05, 01:09:04,VALID,1001.98,VALID,0,VALID,91.5554,VALID,0,VALID,22.0625,VALID,228,VALID,0,
2010-02-05, 01:10:04,VALID,1001.96,VALID,0,VALID,91.7767,VALID,0,VALID,22.082,VALID,228,VALID,0,
2010-02-05, 01:11:04,VALID,1001.94,VALID,0,VALID,92.0209,VALID,0,VALID,22.1032,VALID,228,VALID,0,
2010-02-05, 01:12:04,VALID,1001.94,VALID,0,VALID,92.1811,VALID,0,VALID,22.1422,VALID,228,VALID,0,
2010-02-05, 01:13:04,VALID,1001.95,VALID,0,VALID,92.3413,VALID,0,VALID,22.1405,VALID,211,VALID,0.0410156,
2010-02-05, 01:14:04,VALID,1001.94,VALID,0,VALID,92.1353,VALID,0,VALID,22.16,VALID,199,VALID,0.573438,
2010-02-05, 01:15:04,VALID,1001.94,VALID,0,VALID,91.9293,VALID,0,VALID,22.2186,VALID,198,VALID,0.4,
2010-02-05, 01:16:04,VALID,1001.94,VALID,0,VALID,91.6012,VALID,0,VALID,22.2576,VALID,198,VALID,0.165234,
2010-02-05, 01:17:04,VALID,1001.96,VALID,0,VALID,91.441,VALID,0,VALID,22.2559,VALID,299,VALID,0.546875,
2010-02-05, 01:18:04,VALID,1001.93,VALID,0,VALID,91.1511,VALID,0,VALID,22.2186,VALID,299,VALID,0.0210938,
2010-02-05, 01:19:04,VALID,1001.89,VALID,0,VALID,91.3876,VALID,0,VALID,22.1974,VALID,278,VALID,0,
2010-02-05, 01:20:04,VALID,1001.86,VALID,0,VALID,91.4715,VALID,0,VALID,22.1974,VALID,278,VALID,0,
2010-02-05, 01:21:04,VALID,1001.85,VALID,0,VALID,91.4563,VALID,0,VALID,22.1584,VALID,227,VALID,0.203516,
2010-02-05, 01:22:04,VALID,1001.83,VALID,0,VALID,91.38,VALID,0,VALID,22.16,VALID,172,VALID,0.260547,
2010-02-05, 01:23:04,VALID,1001.82,VALID,0,VALID,91.5554,VALID,0.112286,VALID,22.199,VALID,228,VALID,0.577734,
2010-02-05, 01:24:04,VALID,1001.84,VALID,0,VALID,91.4334,VALID,0,VALID,22.199,VALID,228,VALID,0.395703,
2010-02-05, 01:25:04,VALID,1001.81,VALID,0,VALID,91.4105,VALID,0,VALID,22.199,VALID,228,VALID,0.398438,
2010-02-05, 01:26:04,VALID,1001.83,VALID,0,VALID,91.3037,VALID,0,VALID,22.2186,VALID,228,VALID,0,
2010-02-05, 01:27:04,VALID,1001.8,VALID,0,VALID,91.2197,VALID,0,VALID,22.199,VALID,228,VALID,0,
2010-02-05, 01:28:04,VALID,1001.8,VALID,0,VALID,91.2121,VALID,0,VALID,22.199,VALID,228,VALID,0,
2010-02-05, 01:29:04,VALID,1001.77,VALID,0,VALID,91.1968,VALID,0,VALID,22.1812,VALID,228,VALID,0,
2010-02-05, 01:30:04,VALID,1001.75,VALID,0,VALID,91.1282,VALID,0,VALID,22.1812,VALID,228,VALID,0,
2010-02-05, 01:31:04,VALID,1001.72,VALID,0,VALID,90.9832,VALID,0,VALID,22.1422,VALID,228,VALID,0,
2010-02-05, 01:32:04,VALID,1001.71,VALID,0,VALID,90.9909,VALID,0,VALID,22.1015,VALID,199,VALID,0,
2010-02-05, 01:33:04,VALID,1001.71,VALID,0,VALID,90.8459,VALID,0,VALID,22.082,VALID,176,VALID,0,
2010-02-05, 01:34:04,VALID,1001.67,VALID,0,VALID,90.6857,VALID,0,VALID,22.1422,VALID,178,VALID,0.777344,
2010-02-05, 01:35:04,VALID,1001.68,VALID,0,VALID,90.0295,VALID,0,VALID,22.2007,VALID,179,VALID,1.24688,
2010-02-05, 01:36:04,VALID,1001.67,VALID,0,VALID,89.4573,VALID,0,VALID,22.3178,VALID,188,VALID,1.02188,
2010-02-05, 01:37:04,VALID,1001.68,VALID,0,VALID,88.8546,VALID,0,VALID,22.3568,VALID,163,VALID,1.17148,
2010-02-05, 01:38:04,VALID,1001.66,VALID,0,VALID,88.8698,VALID,0,VALID,22.3373,VALID,185,VALID,1.01211,
2010-02-05, 01:39:04,VALID,1001.63,VALID,0,VALID,88.8393,VALID,0,VALID,22.3373,VALID,185,VALID,0.879297,
2010-02-05, 01:40:04,VALID,1001.65,VALID,0,VALID,88.7401,VALID,0,VALID,22.3178,VALID,184,VALID,0.696484,
2010-02-05, 01:41:04,VALID,1001.63,VALID,0,VALID,88.6562,VALID,0,VALID,22.3178,VALID,177,VALID,0.998828,
2010-02-05, 01:42:04,VALID,1001.61,VALID,0,VALID,88.5723,VALID,0,VALID,22.3178,VALID,170,VALID,1.25273,
2010-02-05, 01:43:04,VALID,1001.61,VALID,0,VALID,88.0611,VALID,0,VALID,22.3178,VALID,160,VALID,1.59258,
2010-02-05, 01:44:04,VALID,1001.56,VALID,0,VALID,87.8856,VALID,0,VALID,22.2966,VALID,161,VALID,1.88594,
2010-02-05, 01:45:04,VALID,1001.58,VALID,0,VALID,87.9543,VALID,0,VALID,22.2364,VALID,163,VALID,1.96719,
2010-02-05, 01:46:04,VALID,1001.59,VALID,0,VALID,88.0306,VALID,0,VALID,22.2169,VALID,161,VALID,1.73047,
2010-02-05, 01:47:04,VALID,1001.57,VALID,0,VALID,88.2747,VALID,0,VALID,22.199,VALID,163,VALID,1.92461,
2010-02-05, 01:48:04,VALID,1001.59,VALID,0,VALID,88.3739,VALID,0,VALID,22.1795,VALID,173,VALID,1.60352,
2010-02-05, 01:49:04,VALID,1001.6,VALID,0,VALID,88.4731,VALID,0,VALID,22.1194,VALID,170,VALID,1.89531,
2010-02-05, 01:50:04,VALID,1001.58,VALID,0,VALID,88.6791,VALID,0,VALID,22.121,VALID,168,VALID,1.92266,
2010-02-05, 01:51:04,VALID,1001.57,VALID,0,VALID,89.1216,VALID,0,VALID,22.121,VALID,175,VALID,1.79336,
2010-02-05, 01:52:04,VALID,1001.56,VALID,0,VALID,89.526,VALID,0,VALID,22.1405,VALID,170,VALID,1.77227,
2010-02-05, 01:53:04,VALID,1001.58,VALID,0,VALID,89.587,VALID,0,VALID,22.16,VALID,163,VALID,1.4918,
2010-02-05, 01:54:04,VALID,1001.57,VALID,0,VALID,89.7854,VALID,0,VALID,22.1405,VALID,162,VALID,1.37422,
2010-02-05, 01:55:04,VALID,1001.6,VALID,0,VALID,89.9151,VALID,0,VALID,22.1015,VALID,155,VALID,1.03594,
2010-02-05, 01:56:04,VALID,1001.57,VALID,0,VALID,90.0219,VALID,0,VALID,22.0625,VALID,155,VALID,0.723828,
2010-02-05, 01:57:04,VALID,1001.54,VALID,0,VALID,90.2203,VALID,0,VALID,22.0235,VALID,147,VALID,0.739844,
2010-02-05, 01:58:04,VALID,1001.56,VALID,0,VALID,90.6475,VALID,0,VALID,22.004,VALID,148,VALID,0.805859,
2010-02-05, 01:59:04,VALID,1001.58,VALID,0,VALID,90.9222,VALID,0,VALID,22.0057,VALID,146,VALID,0.517187,
2010-02-05, 02:00:04,VALID,1001.56,VALID,0,VALID,91.1053,VALID,0,VALID,21.965,VALID,141,VALID,0.198437,
2010-02-05, 02:01:04,VALID,1001.59,VALID,0,VALID,91.1511,VALID,0,VALID,21.9667,VALID,140,VALID,0.103516,
2010-02-05, 02:02:04,VALID,1001.58,VALID,0,VALID,91.174,VALID,0,VALID,21.9472,VALID,140,VALID,0,
2010-02-05, 02:03:04,VALID,1001.56,VALID,0,VALID,91.4257,VALID,0,VALID,21.9065,VALID,116,VALID,0.336328,
2010-02-05, 02:04:04,VALID,1001.54,VALID,0,VALID,91.4563,VALID,0,VALID,21.9082,VALID,12,VALID,0.556641,
2010-02-05, 02:05:04,VALID,1001.48,VALID,0,VALID,91.6317,VALID,0,VALID,21.9082,VALID,12,VALID,0.386719,
2010-02-05, 02:06:04,VALID,1001.46,VALID,0,VALID,91.7309,VALID,0,VALID,21.9277,VALID,12,VALID,0,
2010-02-05, 02:07:04,VALID,1001.44,VALID,0,VALID,91.7309,VALID,0,VALID,21.9277,VALID,12,VALID,0,
2010-02-05, 02:08:04,VALID,1001.45,VALID,0,VALID,91.6546,VALID,0,VALID,21.9277,VALID,12,VALID,0,
2010-02-05, 02:09:04,VALID,1001.43,VALID,0,VALID,91.708,VALID,0,VALID,21.9277,VALID,12,VALID,0,
2010-02-05, 02:10:04,VALID,1001.45,VALID,0,VALID,91.586,VALID,0,VALID,21.9277,VALID,5,VALID,0.475781,
2010-02-05, 02:11:04,VALID,1001.45,VALID,0,VALID,91.4944,VALID,0,VALID,21.8675,VALID,353,VALID,0.370703,
2010-02-05, 02:12:04,VALID,1001.43,VALID,0,VALID,91.5478,VALID,0,VALID,21.8692,VALID,350,VALID,0.117578,
2010-02-05, 02:13:04,VALID,1001.38,VALID,0,VALID,91.6394,VALID,0,VALID,21.8692,VALID,327,VALID,0,
2010-02-05, 02:14:04,VALID,1001.38,VALID,0,VALID,91.7157,VALID,0,VALID,21.848,VALID,327,VALID,0,
2010-02-05, 02:15:04,VALID,1001.41,VALID,0,VALID,91.7691,VALID,0,VALID,21.8675,VALID,327,VALID,0,
2010-02-05, 02:16:04,VALID,1001.4,VALID,0,VALID,91.6928,VALID,0,VALID,21.8675,VALID,327,VALID,0,
2010-02-05, 02:17:04,VALID,1001.41,VALID,0,VALID,91.6317,VALID,0,VALID,21.848,VALID,327,VALID,0,
2010-02-05, 02:18:04,VALID,1001.42,VALID,0,VALID,91.6165,VALID,0,VALID,21.8285,VALID,327,VALID,0,
2010-02-05, 02:19:04,VALID,1001.43,VALID,0,VALID,91.708,VALID,0,VALID,21.809,VALID,327,VALID,0,
2010-02-05, 02:20:04,VALID,1001.4,VALID,0,VALID,91.7843,VALID,0,VALID,21.8285,VALID,327,VALID,0,
2010-02-05, 02:21:04,VALID,1001.4,VALID,0,VALID,91.6394,VALID,0,VALID,21.77,VALID,327,VALID,0,
2010-02-05, 02:22:04,VALID,1001.41,VALID,0,VALID,91.7538,VALID,0,VALID,21.7505,VALID,327,VALID,0,
2010-02-05, 02:23:04,VALID,1001.39,VALID,0,VALID,92.0971,VALID,0,VALID,21.809,VALID,327,VALID,0,
2010-02-05, 02:24:04,VALID,1001.41,VALID,0,VALID,92.2345,VALID,0,VALID,21.848,VALID,327,VALID,0,
2010-02-05, 02:25:04,VALID,1001.44,VALID,0,VALID,92.1658,VALID,0,VALID,21.848,VALID,327,VALID,0,
2010-02-05, 02:26:05,VALID,1001.48,VALID,0,VALID,92.1277,VALID,0,VALID,21.8675,VALID,327,VALID,0,
2010-02-05, 02:27:05,VALID,1001.48,VALID,0,VALID,91.8759,VALID,0,VALID,21.848,VALID,327,VALID,0,
2010-02-05, 02:28:05,VALID,1001.49,VALID,0,VALID,91.6775,VALID,0,VALID,21.7488,VALID,327,VALID,0,
2010-02-05, 02:29:05,VALID,1001.44,VALID,0,VALID,91.7767,VALID,0,VALID,21.7115,VALID,327,VALID,0,
2010-02-05, 02:30:05,VALID,1001.45,VALID,0,VALID,91.7691,VALID,0,VALID,21.692,VALID,327,VALID,0,
2010-02-05, 02:31:05,VALID,1001.45,VALID,0,VALID,91.6623,VALID,0,VALID,21.614,VALID,327,VALID,0,
2010-02-05, 02:32:05,VALID,1001.45,VALID,0,VALID,91.8606,VALID,0,VALID,21.5945,VALID,327,VALID,0,
2010-02-05, 02:33:05,VALID,1001.42,VALID,0,VALID,92.0666,VALID,0,VALID,21.5945,VALID,327,VALID,0,
2010-02-05, 02:34:05,VALID,1001.46,VALID,0,VALID,92.1734,VALID,0,VALID,21.575,VALID,327,VALID,0,
2010-02-05, 02:35:05,VALID,1001.43,VALID,0,VALID,92.2497,VALID,0,VALID,21.575,VALID,327,VALID,0,
2010-02-05, 02:36:05,VALID,1001.45,VALID,0,VALID,92.3871,VALID,0,VALID,21.5555,VALID,327,VALID,0,
2010-02-05, 02:37:05,VALID,1001.45,VALID,0,VALID,92.4557,VALID,0,VALID,21.5555,VALID,327,VALID,0,
2010-02-05, 02:38:05,VALID,1001.51,VALID,0,VALID,92.5015,VALID,0,VALID,21.5555,VALID,327,VALID,0,
2010-02-05, 02:39:05,VALID,1001.51,VALID,0,VALID,92.265,VALID,0,VALID,21.5165,VALID,327,VALID,0,
2010-02-05, 02:40:05,VALID,1001.51,VALID,0,VALID,92.2497,VALID,0,VALID,21.4385,VALID,327,VALID,0,
2010-02-05, 02:41:05,VALID,1001.48,VALID,0,VALID,92.5168,VALID,0,VALID,21.458,VALID,327,VALID,0,
2010-02-05, 02:42:05,VALID,1001.49,VALID,0,VALID,92.6694,VALID,0,VALID,21.4775,VALID,327,VALID,0,
2010-02-05, 02:43:05,VALID,1001.48,VALID,0,VALID,92.6999,VALID,0,VALID,21.4775,VALID,327,VALID,0,
2010-02-05, 02:44:05,VALID,1001.47,VALID,0,VALID,92.7075,VALID,0,VALID,21.4596,VALID,327,VALID,0,
2010-02-05, 02:45:05,VALID,1001.48,VALID,0,VALID,92.6846,VALID,0,VALID,21.4401,VALID,327,VALID,0,
2010-02-05, 02:46:05,VALID,1001.47,VALID,0,VALID,92.7991,VALID,0,VALID,21.4401,VALID,327,VALID,0,
2010-02-05, 02:47:05,VALID,1001.45,VALID,0,VALID,92.8525,VALID,0,VALID,21.4401,VALID,327,VALID,0,
2010-02-05, 02:48:05,VALID,1001.44,VALID,0,VALID,92.8677,VALID,0,VALID,21.4596,VALID,327,VALID,0,
2010-02-05, 02:49:05,VALID,1001.45,VALID,0,VALID,92.9211,VALID,0,VALID,21.4596,VALID,327,VALID,0,
2010-02-05, 02:50:05,VALID,1001.44,VALID,0,VALID,92.9288,VALID,0,VALID,21.4596,VALID,327,VALID,0,
2010-02-05, 02:51:05,VALID,1001.45,VALID,0,VALID,93.0508,VALID,0,VALID,21.4596,VALID,327,VALID,0,
2010-02-05, 02:52:05,VALID,1001.45,VALID,0,VALID,93.1119,VALID,0,VALID,21.4986,VALID,327,VALID,0,
2010-02-05, 02:53:05,VALID,1001.43,VALID,0,VALID,93.1882,VALID,0,VALID,21.5571,VALID,327,VALID,0,
2010-02-05, 02:54:05,VALID,1001.43,VALID,0,VALID,93.0814,VALID,0,VALID,21.5766,VALID,327,VALID,0,
2010-02-05, 02:55:05,VALID,1001.42,VALID,0,VALID,93.0966,VALID,0,VALID,21.5766,VALID,327,VALID,0,
2010-02-05, 02:56:05,VALID,1001.42,VALID,0,VALID,93.0966,VALID,0,VALID,21.575,VALID,327,VALID,0,
2010-02-05, 02:57:05,VALID,1001.39,VALID,0,VALID,92.944,VALID,0,VALID,21.5766,VALID,327,VALID,0,
2010-02-05, 02:58:05,VALID,1001.4,VALID,0,VALID,92.5702,VALID,0,VALID,21.5181,VALID,85,VALID,1.18203,
2010-02-05, 02:59:05,VALID,1001.4,VALID,0,VALID,92.7838,VALID,0,VALID,21.5181,VALID,152,VALID,1.05664,
2010-02-05, 03:00:05,VALID,1001.38,VALID,0,VALID,92.6846,VALID,0,VALID,21.5376,VALID,160,VALID,1.33633,
2010-02-05, 03:01:05,VALID,1001.4,VALID,0,VALID,92.616,VALID,0,VALID,21.536,VALID,145,VALID,1.37227,
2010-02-05, 03:02:05,VALID,1001.39,VALID,0,VALID,92.5168,VALID,0,VALID,21.575,VALID,163,VALID,1.00898,
2010-02-05, 03:03:05,VALID,1001.44,VALID,0,VALID,92.4786,VALID,0,VALID,21.6351,VALID,168,VALID,0.686719,
2010-02-05, 03:04:05,VALID,1001.43,VALID,0,VALID,92.3337,VALID,0,VALID,21.6546,VALID,168,VALID,0,
2010-02-05, 03:05:05,VALID,1001.45,VALID,0,VALID,92.1734,VALID,0,VALID,21.6351,VALID,168,VALID,0,
2010-02-05, 03:06:05,VALID,1001.47,VALID,0,VALID,91.914,VALID,0,VALID,21.6156,VALID,168,VALID,0,
2010-02-05, 03:07:05,VALID,1001.48,VALID,0,VALID,92.0056,VALID,0,VALID,21.6156,VALID,168,VALID,0,
2010-02-05, 03:08:05,VALID,1001.49,VALID,0,VALID,91.9674,VALID,0,VALID,21.5961,VALID,168,VALID,0,
2010-02-05, 03:09:05,VALID,1001.52,VALID,0,VALID,91.9064,VALID,0,VALID,21.5766,VALID,168,VALID,0,
2010-02-05, 03:10:05,VALID,1001.5,VALID,0,VALID,91.5936,VALID,0,VALID,21.5181,VALID,168,VALID,0,
2010-02-05, 03:11:05,VALID,1001.5,VALID,0,VALID,91.647,VALID,0,VALID,21.4791,VALID,355,VALID,0,
2010-02-05, 03:12:05,VALID,1001.51,VALID,0,VALID,91.8454,VALID,0,VALID,21.4385,VALID,355,VALID,0,
2010-02-05, 03:13:05,VALID,1001.52,VALID,0,VALID,92.0666,VALID,0,VALID,21.458,VALID,355,VALID,0,
2010-02-05, 03:14:05,VALID,1001.53,VALID,0,VALID,92.1734,VALID,0,VALID,21.4986,VALID,355,VALID,0,
2010-02-05, 03:15:05,VALID,1001.53,VALID,0,VALID,92.2421,VALID,0,VALID,21.4775,VALID,355,VALID,0,
2010-02-05, 03:16:05,VALID,1001.55,VALID,0,VALID,92.2955,VALID,0,VALID,21.4986,VALID,355,VALID,0,
2010-02-05, 03:17:05,VALID,1001.57,VALID,0,VALID,92.326,VALID,0,VALID,21.4775,VALID,355,VALID,0,
2010-02-05, 03:18:05,VALID,1001.59,VALID,0,VALID,92.3489,VALID,0,VALID,21.4986,VALID,355,VALID,0,
2010-02-05, 03:19:05,VALID,1001.6,VALID,0,VALID,92.3718,VALID,0,VALID,21.4791,VALID,355,VALID,0,
2010-02-05, 03:20:05,VALID,1001.64,VALID,0,VALID,92.3184,VALID,0,VALID,21.4385,VALID,355,VALID,0,
2010-02-05, 03:21:05,VALID,1001.65,VALID,0,VALID,92.4863,VALID,0,VALID,21.4401,VALID,355,VALID,0,
2010-02-05, 03:22:05,VALID,1001.62,VALID,0,VALID,92.6694,VALID,0,VALID,21.4385,VALID,318,VALID,0,
2010-02-05, 03:23:05,VALID,1001.65,VALID,0,VALID,92.7457,VALID,0,VALID,21.4596,VALID,312,VALID,0,
2010-02-05, 03:24:05,VALID,1001.65,VALID,0,VALID,92.6846,VALID,0,VALID,21.4401,VALID,312,VALID,0,
2010-02-05, 03:25:05,VALID,1001.66,VALID,0,VALID,92.7685,VALID,0,VALID,21.4401,VALID,312,VALID,0,
2010-02-05, 03:26:05,VALID,1001.66,VALID,0,VALID,92.7991,VALID,0,VALID,21.419,VALID,312,VALID,0,
2010-02-05, 03:27:05,VALID,1001.65,VALID,0,VALID,92.883,VALID,0,VALID,21.4596,VALID,312,VALID,0,
2010-02-05, 03:28:05,VALID,1001.68,VALID,0,VALID,92.9669,VALID,0,VALID,21.4385,VALID,313,VALID,0,
2010-02-05, 03:29:05,VALID,1001.68,VALID,0,VALID,93.0356,VALID,0,VALID,21.4791,VALID,313,VALID,0,
2010-02-05, 03:30:05,VALID,1001.68,VALID,0,VALID,93.0356,VALID,0,VALID,21.458,VALID,313,VALID,0,
2010-02-05, 03:31:05,VALID,1001.71,VALID,0,VALID,93.0432,VALID,0,VALID,21.4791,VALID,313,VALID,0,
2010-02-05, 03:32:05,VALID,1001.75,VALID,0,VALID,93.0203,VALID,0,VALID,21.4596,VALID,313,VALID,0,
2010-02-05, 03:33:05,VALID,1001.75,VALID,0,VALID,92.9745,VALID,0,VALID,21.419,VALID,313,VALID,0,
2010-02-05, 03:34:05,VALID,1001.74,VALID,0,VALID,92.9974,VALID,0,VALID,21.4401,VALID,313,VALID,0,
2010-02-05, 03:35:05,VALID,1001.76,VALID,0,VALID,93.0585,VALID,0,VALID,21.4385,VALID,313,VALID,0,
2010-02-05, 03:36:05,VALID,1001.81,VALID,0,VALID,93.0585,VALID,0,VALID,21.4596,VALID,313,VALID,0,
2010-02-05, 03:37:05,VALID,1001.82,VALID,0,VALID,93.0508,VALID,0,VALID,21.4401,VALID,313,VALID,0,
2010-02-05, 03:38:05,VALID,1001.82,VALID,0,VALID,93.0661,VALID,0,VALID,21.419,VALID,313,VALID,0,
2010-02-05, 03:39:05,VALID,1001.79,VALID,0,VALID,93.1271,VALID,0,VALID,21.419,VALID,302,VALID,0,
2010-02-05, 03:40:05,VALID,1001.81,VALID,0,VALID,93.1805,VALID,0,VALID,21.4791,VALID,232,VALID,0,
2010-02-05, 03:41:05,VALID,1001.83,VALID,0,VALID,93.1729,VALID,0,VALID,21.4791,VALID,232,VALID,0,
2010-02-05, 03:42:05,VALID,1001.84,VALID,0,VALID,93.15,VALID,0,VALID,21.458,VALID,232,VALID,0,
2010-02-05, 03:43:05,VALID,1001.82,VALID,0,VALID,93.1195,VALID,0,VALID,21.4986,VALID,232,VALID,0,
2010-02-05, 03:44:05,VALID,1001.85,VALID,0,VALID,93.1119,VALID,0,VALID,21.497,VALID,232,VALID,0,
2010-02-05, 03:45:05,VALID,1001.85,VALID,0,VALID,93.0661,VALID,0,VALID,21.5165,VALID,232,VALID,0,
2010-02-05, 03:46:05,VALID,1001.89,VALID,0,VALID,92.9288,VALID,0,VALID,21.5181,VALID,171,VALID,0.95,
2010-02-05, 03:47:05,VALID,1001.9,VALID,0,VALID,92.7685,VALID,0,VALID,21.497,VALID,170,VALID,0.942187,
2010-02-05, 03:48:05,VALID,1001.92,VALID,0,VALID,92.6541,VALID,0,VALID,21.5571,VALID,212,VALID,0.505859,
2010-02-05, 03:49:05,VALID,1001.98,VALID,0,VALID,92.5854,VALID,0,VALID,21.6156,VALID,203,VALID,0.674219,
2010-02-05, 03:50:05,VALID,1001.96,VALID,0,VALID,92.4328,VALID,0,VALID,21.6546,VALID,204,VALID,0.239453,
2010-02-05, 03:51:05,VALID,1002.01,VALID,0,VALID,92.1963,VALID,0,VALID,21.653,VALID,204,VALID,0,
2010-02-05, 03:52:05,VALID,1002,VALID,0,VALID,92.0895,VALID,0,VALID,21.6546,VALID,204,VALID,0,
2010-02-05, 03:53:05,VALID,1002.01,VALID,0,VALID,92.0361,VALID,0,VALID,21.653,VALID,204,VALID,0,
2010-02-05, 03:54:05,VALID,1002.04,VALID,0,VALID,92.0743,VALID,0,VALID,21.6335,VALID,204,VALID,0,
2010-02-05, 03:55:05,VALID,1002.04,VALID,0,VALID,91.9522,VALID,0,VALID,21.6741,VALID,204,VALID,0,